7 * 24
多渠道服务支持
STARLINK-37602(NORAD编号69358)是美国太空探索技术公司(SpaceX)星链低轨通信星座的成员卫星。作为星链全球互联网服务组网的组成部分,该卫星运行于低地球轨道,搭载星间激光通信链路,可与同星座卫星、地面终端通信,为全球偏远、网络覆盖不足区域提供低延迟、高速率的卫星互联网接入服务。截至2026年6月,星链全球在轨卫星超5400颗,覆盖75个以上国家和地区,该卫星正按设计在轨稳定运行,承担通信载荷分发、网络覆盖补盲等任务,是星链全球服务网络的重要组成单元。
美国
(US)
| 数据来源 | 国际轨道数据 |
| 星历时间: | 2026-09-09T20:57:09+0800 1天前 查看轨道信息 |
| 半长轴: | 6840.868km |
| 偏心率: | 0.0001718 |
| 轨道倾角: | 53.163° |
| 近地点辐角 | 84.949° |
| 升交点赤经 | 193.242° |
| 平近点角 | 275.171° |
| 近地点: | 461.555km |
| 远地点: | 463.907km |
| 周期: | 93.848分钟 |
| 每日圈数: | 15.343907 |